Location: Chuathbaluk
(61.5726°N, 159.2454°W)
Time: 10:20:08
(UTC+00:00)

XW-2F - Visible Passes

Search period start: 17 January 2021 00:00
Search period end: 27 January 2021 00:00
Orbit: 500 x 520 km, 97.5° (Epoch: 17 January)

Date Brightness Start Highest point End Pass type
(mag) Time Alt. Az. Time Alt. Az. Time Alt. Az.
17 Jan ? 04:02:42 10° S 04:06:17 45° W 04:09:55 10° NNW visible
17 Jan ? 15:24:21 10° ENE 15:25:38 11° E 15:26:56 10° ESE visible
17 Jan ? 16:56:38 10° NNE 17:00:25 60° ESE 17:04:10 10° S visible
17 Jan ? 18:30:57 10° N 18:34:09 26° WNW 18:37:21 10° WSW visible
18 Jan ? 03:46:02 10° S 03:49:44 62° WSW 03:53:29 10° NNW visible
18 Jan ? 05:23:08 10° WSW 05:24:30 12° W 05:25:51 10° WNW visible
18 Jan ? 16:40:12 10° NNE 16:43:51 43° E 16:47:30 10° S visible
18 Jan ? 18:14:19 10° N 18:17:45 33° WNW 18:21:12 10° SW visible
19 Jan ? 03:29:28 10° SSE 03:33:12 86° WSW 03:37:00 10° NNW visible
19 Jan ? 05:05:28 10° SW 05:07:46 16° W 05:10:05 10° NW visible
19 Jan ? 16:23:48 10° NNE 16:27:15 32° E 16:30:42 10° SSE visible
19 Jan ? 17:57:42 10° N 18:01:20 44° WNW 18:04:58 10° SW visible
20 Jan ? 03:12:59 10° SSE 03:16:43 70° ENE 03:20:28 10° NNW visible
20 Jan ? 04:48:13 10° SW 04:51:05 20° W 04:53:58 10° NW visible
20 Jan ? 16:07:28 10° NE 16:10:38 24° E 16:13:47 10° SSE visible
20 Jan ? 17:41:08 10° NNE 17:44:54 59° WNW 17:48:38 10° SSW visible
21 Jan ? 04:31:12 10° SSW 04:34:25 27° W 04:37:42 10° NNW visible
21 Jan ? 15:51:14 10° NE 15:53:57 18° E 15:56:41 10° SE visible
21 Jan ? 17:24:35 10° NNE 17:28:24 80° WNW 17:32:13 10° SSW visible
22 Jan ? 04:14:19 10° SSW 04:17:48 36° W 04:21:20 10° NNW visible
22 Jan ? 15:35:11 10° NE 15:37:15 14° E 15:39:19 10° ESE visible
22 Jan ? 17:08:04 10° NNE 17:11:54 75° ESE 17:15:42 10° SSW visible
23 Jan ? 03:57:33 10° S 04:01:12 50° W 04:04:54 10° NNW visible
23 Jan ? 15:19:48 10° ENE 15:20:30 10° E 15:21:13 10° E visible
23 Jan ? 16:51:35 10° NNE 16:55:20 54° ESE 16:59:05 10° S visible
23 Jan ? 18:25:50 10° N 18:29:08 28° WNW 18:32:25 10° WSW visible
24 Jan ? 03:40:55 10° S 03:44:39 69° WSW 03:48:26 10° NNW visible
24 Jan ? 05:17:35 10° WSW 05:19:21 13° W 05:21:07 10° NW visible
24 Jan ? 16:35:08 10° NNE 16:38:45 40° E 16:42:21 10° S visible
24 Jan ? 18:09:12 10° N 18:12:43 36° WNW 18:16:14 10° SW visible
25 Jan ? 03:24:21 10° SSE 03:28:07 86° ENE 03:31:56 10° NNW visible
25 Jan ? 05:00:05 10° SW 05:02:37 17° W 05:05:10 10° NW visible
25 Jan ? 16:18:45 10° NNE 16:22:08 29° E 16:25:31 10° SSE visible
25 Jan ? 17:52:35 10° N 17:56:16 48° WNW 17:59:57 10° SW visible
26 Jan ? 04:42:55 10° SW 04:45:56 22° W 04:48:59 10° NW visible
26 Jan ? 16:02:25 10° NE 16:05:29 22° E 16:08:31 10° SE visible
26 Jan ? 17:36:01 10° NNE 17:39:48 65° WNW 17:43:34 10° SSW visible
